Latest Coastal Weather Observations for Gunn Point

IDD60701

Issued at 12:41 pm CST Tuesday 31 March 2015 (issued every 10 minutes, with the page automatically refreshed every 10 minutes)

About coastal observations | Map of coastal stations | Coastal observations for NT | Marine services | Other Formats
Station Details ID: 014023 Name: GUNN POINT Lat: -12.25 Lon: 131.04 Height: 25.0 m
Data from the previous 72 hours. | See also: Recent months for locations in Northern Territory
Date/Time
CST
Temp

°C
Wind Pressure Rain
since 9am
mm
Weather Cloud Vis
km
Sea
Height
m
Swell
Dir
 
Speed
knots
Gust
knots
hPa Trend Height
m
Period
s
Dir
31/12:30pm 33.2 E 4 7 1011.5 - 0.0 - - - - - - -
31/12:00pm 32.2 SE 5 9 1012.0 - 0.0 - - - - - - -
31/11:30am 32.1 E 4 7 1012.3 - 0.0 - - - - - - -
31/11:00am 31.9 ESE 5 10 1012.6 - 0.0 - - - - - - -
31/10:30am 31.4 E 4 8 1012.9 - 0.0 - - - - - - -
31/10:00am 30.0 ESE 6 9 1013.2 - 0.0 - - - - - - -
31/09:30am 29.2 ESE 5 9 1013.3 - 0.0 - - - - - - -
31/09:00am 28.1 E 3 7 1013.4 - 0.0 - - - - - - -
31/08:30am 27.4 ESE 3 6 1013.2 - 0.0 - - - - - - -
31/08:00am 25.6 ESE 2 3 1013.0 - 0.0 - - - - - - -
31/07:30am 24.4 ESE 1 2 1012.7 - 0.0 - - - - - - -
31/07:00am 23.8 SE 2 3 1012.3 - 0.0 - - - - - - -
31/06:30am 24.1 SE 2 3 1012.1 - 0.0 - - - - - - -
31/06:00am 24.3 SE 2 4 1011.8 - 0.0 - - - - - - -
31/05:30am 24.1 SSE 2 3 1011.4 - 0.0 - - - - - - -
31/05:00am 24.3 SE 2 3 1011.1 - 0.0 - - - - - - -
31/04:30am 23.9 CALM 0 0 1010.7 - 0.0 - - - - - - -
31/04:00am 23.8 SSE 2 3 1010.7 - 0.0 - - - - - - -
31/03:30am 22.9 CALM 0 0 1010.6 - 0.0 - - - - - - -
31/03:00am 23.0 CALM 0 0 1010.9 - 0.0 - - - - - - -
31/02:30am 23.1 CALM 0 0 1011.2 - 0.0 - - - - - - -
31/02:00am 23.1 SSE 2 2 1011.5 - 0.0 - - - - - - -
31/01:30am 23.2 CALM 0 2 1011.8 - 0.0 - - - - - - -
31/01:00am 23.0 ENE 2 3 1012.1 - 0.0 - - - - - - -
31/12:30am 23.1 NE 1 2 1012.3 - 0.0 - - - - - - -
31/12:00am 23.1 CALM 0 0 1012.6 - 0.0 - - - - - - -
 
Date/Time
CST
Temp

°C
Wind Pressure Rain
since 9am
mm
Weather Cloud Vis
km
Sea
Height
m
Swell
Dir
 
Speed
knots
Gust
knots
hPa Trend Height
m
Period
s
Dir
30/11:30pm 22.8 CALM 0 0 1012.7 - 0.0 - - - - - - -
30/11:00pm 23.0 CALM 0 0 1012.9 - 0.0 - - - - - - -
30/10:30pm 22.9 CALM 0 0 1012.7 - 0.0 - - - - - - -
30/10:00pm 23.2 CALM 0 0 1012.6 - 0.0 - - - - - - -
30/09:30pm 23.3 CALM 0 0 1012.5 - 0.0 - - - - - - -
30/09:00pm 23.7 CALM 0 0 1012.2 - 0.0 - - - - - - -
30/08:30pm 24.1 CALM 0 0 1011.9 - 0.0 - - - - - - -
30/08:00pm 24.6 CALM 0 0 1011.6 - 0.0 - - - - - - -
30/07:30pm 25.4 CALM 0 0 1011.4 - 0.0 - - - - - - -
30/07:00pm 26.9 ENE 1 2 1011.1 - 0.0 - - - - - - -
30/06:30pm 29.1 ENE 2 4 1010.9 - 0.0 - - - - - - -
30/06:00pm 30.3 ENE 4 6 1010.8 - 0.0 - - - - - - -
30/05:30pm 30.9 ENE 5 10 1010.6 - 0.0 - - - - - - -
30/05:00pm 31.8 ENE 4 7 1010.5 - 0.0 - - - - - - -
30/04:30pm 31.7 ENE 6 10 1010.4 - 0.0 - - - - - - -
30/04:00pm 31.5 ENE 7 12 1010.5 - 0.0 - - - - - - -
30/03:30pm 31.3 ENE 8 13 1010.5 - 0.0 - - - - - - -
30/03:00pm 31.6 NE 8 14 1010.5 - 0.0 - - - - - - -
30/02:30pm 32.3 NE 6 10 1010.6 - 0.0 - - - - - - -
30/02:00pm 32.0 NE 7 11 1010.8 - 0.0 - - - - - - -
30/01:30pm 32.5 ENE 5 10 1010.9 - 0.0 - - - - - - -
30/01:00pm 32.3 E 6 13 1011.3 - 0.0 - - - - - - -
30/12:30pm 31.5 ESE 6 11 1011.6 - 0.0 - - - - - - -
30/12:00pm 31.5 ESE 7 12 1012.2 - 0.0 - - - - - - -
30/11:30am 31.3 ESE 7 12 1012.6 - 0.0 - - - - - - -
30/11:00am 31.4 E 7 11 1012.8 - 0.0 - - - - - - -
30/10:30am 30.8 ESE 7 11 1012.9 - 0.0 - - - - - - -
30/10:00am 30.3 E 5 10 1012.9 - 0.0 - - - - - - -
30/09:30am 29.6 E 6 8 1013.0 - 0.0 - - - - - - -
30/09:00am 28.8 E 4 7 1013.0 - 0.0 - - - - - - -
30/08:30am 27.7 ESE 3 5 1012.7 - 0.0 - - - - - - -
30/08:00am 25.9 ESE 2 3 1012.1 - 0.0 - - - - - - -
30/07:30am 23.8 ESE 2 3 1011.8 - 0.0 - - - - - - -
30/07:00am 22.3 ESE 2 3 1011.7 - 0.0 - - - - - - -
30/06:30am 22.3 ESE 2 3 1011.4 - 0.0 - - - - - - -
30/06:00am 23.0 ESE 2 3 1011.2 - 0.0 - - - - - - -
30/05:30am 22.3 SE 1 3 1011.1 - 0.0 - - - - - - -
30/05:00am 22.5 CALM 0 0 1010.9 - 0.0 - - - - - - -
30/04:30am 22.7 CALM 0 0 1010.8 - 0.0 - - - - - - -
30/04:00am 22.5 CALM 0 0 1010.8 - 0.0 - - - - - - -
30/03:30am 22.3 CALM 0 0 1010.9 - 0.0 - - - - - - -
30/03:00am 22.7 CALM 0 0 1011.0 - 0.0 - - - - - - -
30/02:30am 22.6 CALM 0 0 1011.1 - 0.0 - - - - - - -
30/02:00am 22.9 CALM 0 0 1011.5 - 0.0 - - - - - - -
30/01:30am 23.0 CALM 0 0 1011.8 - 0.0 - - - - - - -
30/01:00am 23.3 CALM 0 0 1012.1 - 0.0 - - - - - - -
30/12:30am 23.3 CALM 0 0 1012.4 - 0.0 - - - - - - -
30/12:00am 23.5 CALM 0 0 1012.8 - 0.0 - - - - - - -
 
Date/Time
CST
Temp

°C
Wind Pressure Rain
since 9am
mm
Weather Cloud Vis
km
Sea
Height
m
Swell
Dir
 
Speed
knots
Gust
knots
hPa Trend Height
m
Period
s
Dir
29/11:30pm 23.8 CALM 0 0 1012.8 - 0.0 - - - - - - -
29/11:00pm 23.9 CALM 0 0 1012.9 - 0.0 - - - - - - -
29/10:30pm 24.0 CALM 0 0 1012.9 - 0.0 - - - - - - -
29/10:00pm 24.2 CALM 0 0 1012.7 - 0.0 - - - - - - -
29/09:30pm 24.4 CALM 0 0 1012.6 - 0.0 - - - - - - -
29/09:00pm 24.8 ENE 1 2 1012.3 - 0.0 - - - - - - -
29/08:30pm 25.1 ENE 2 3 1012.0 - 0.0 - - - - - - -
29/08:00pm 25.3 CALM 0 1 1011.8 - 0.0 - - - - - - -
29/07:30pm 26.0 CALM 0 1 1011.4 - 0.0 - - - - - - -
29/07:00pm 27.2 CALM 0 2 1010.9 - 0.0 - - - - - - -
29/06:30pm 28.9 NE 2 4 1010.6 - 0.0 - - - - - - -
29/06:00pm 29.9 NE 5 9 1010.5 - 0.0 - - - - - - -
29/05:30pm 30.5 NE 4 7 1010.3 - 0.0 - - - - - - -
29/05:00pm 30.8 NNE 5 11 1009.9 - 0.0 - - - - - - -
29/04:30pm 31.4 NE 5 11 1009.8 - 0.0 - - - - - - -
29/04:00pm 31.6 NE 5 9 1009.9 - 0.0 - - - - - - -
29/03:30pm 32.4 NE 3 7 1010.0 - 0.0 - - - - - - -
29/03:00pm 30.9 NE 5 9 1010.0 - 0.0 - - - - - - -
29/02:30pm 32.7 ENE 5 11 1010.3 - 0.0 - - - - - - -
29/02:00pm 32.8 E 4 10 1010.7 - 0.0 - - - - - - -
29/01:30pm 32.3 ESE 4 9 1011.0 - 0.0 - - - - - - -
29/01:00pm 32.3 ESE 5 9 1011.6 - 0.0 - - - - - - -
29/12:30pm 32.2 E 4 7 1012.1 - 0.0 - - - - - - -
29/12:00pm 32.1 E 4 7 1012.6 - 0.0 - - - - - - -
29/11:30am 30.9 ENE 3 7 1013.0 - 0.0 - - - - - - -
29/11:00am 31.0 ESE 4 9 1013.1 - 0.0 - - - - - - -
29/10:30am 30.6 ENE 5 9 1013.2 - 0.0 - - - - - - -
29/10:00am 30.3 ENE 4 7 1013.4 - 0.0 - - - - - - -
29/09:30am 29.6 E 4 7 1013.2 - 0.0 - - - - - - -
29/09:00am 29.0 SE 2 3 1013.1 - 0.0 - - - - - - -
29/08:30am 27.6 SE 2 3 1012.9 - 0.0 - - - - - - -
29/08:00am 26.2 ESE 1 3 1012.7 - 0.0 - - - - - - -
29/07:30am 24.6 ESE 1 2 1012.1 - 0.0 - - - - - - -
29/07:00am 23.6 ESE 2 3 1011.7 - 0.0 - - - - - - -
29/06:30am 23.6 ESE 2 3 1011.6 - 0.0 - - - - - - -
29/06:00am 23.7 SE 2 3 1011.7 - 0.0 - - - - - - -
29/05:30am 23.9 CALM 0 1 1011.5 - 0.0 - - - - - - -
29/05:00am 24.1 SE 2 3 1011.2 - 0.0 - - - - - - -
29/04:30am 24.1 SSE 3 6 1010.9 - 0.0 - - - - - - -
29/04:00am 23.7 CALM 0 0 1011.1 - 0.0 - - - - - - -
29/03:30am 23.6 CALM 0 0 1010.9 - 0.0 - - - - - - -
29/03:00am 23.9 CALM 0 0 1011.2 - 0.0 - - - - - - -
29/02:30am 24.1 CALM 0 0 1011.2 - 0.0 - - - - - - -
29/02:00am 24.3 CALM 0 1 1011.8 - 0.0 - - - - - - -
29/01:30am 24.4 SSE 1 3 1012.4 - 0.0 - - - - - - -
29/01:00am 24.4 SSW 1 3 1012.4 - 0.0 - - - - - - -
29/12:30am 24.4 CALM 0 0 1012.3 - 0.0 - - - - - - -
29/12:00am 24.4 CALM 0 0 1012.9 - 0.0 - - - - - - -
 
Date/Time
CST
Temp

°C
Wind Pressure Rain
since 9am
mm
Weather Cloud Vis
km
Sea
Height
m
Swell
Dir
 
Speed
knots
Gust
knots
hPa Trend Height
m
Period
s
Dir
28/11:30pm 24.6 CALM 0 0 1012.9 - 0.0 - - - - - - -
28/11:00pm 24.9 CALM 0 0 1012.9 - 0.0 - - - - - - -
28/10:30pm 25.0 CALM 0 0 1012.7 - 0.0 - - - - - - -
28/10:00pm 24.9 CALM 0 0 1012.5 - 0.0 - - - - - - -
28/09:30pm 25.1 CALM 0 0 1012.5 - 0.0 - - - - - - -
28/09:00pm 25.3 CALM 0 0 1012.3 - 0.0 - - - - - - -
28/08:30pm 25.6 NE 2 3 1012.3 - 0.0 - - - - - - -
28/08:00pm 25.4 CALM 0 1 1011.9 - 0.0 - - - - - - -
28/07:30pm 25.7 NNE 1 2 1011.7 - 0.0 - - - - - - -
28/07:00pm 26.6 NE 2 3 1011.3 - 0.0 - - - - - - -
28/06:30pm 28.0 NNE 2 3 1010.8 - 0.0 - - - - - - -
28/06:00pm 29.5 NNE 3 6 1010.5 - 0.0 - - - - - - -
28/05:30pm 30.8 NE 4 8 1010.2 - 0.0 - - - - - - -
28/05:00pm 31.0 NE 5 8 1010.1 - 0.0 - - - - - - -
28/04:30pm 31.6 NE 5 9 1010.0 - 0.0 - - - - - - -
28/04:00pm 32.0 NE 4 8 1009.8 - 0.0 - - - - - - -
28/03:30pm 31.9 WNW 1 3 1009.9 - 0.0 - - - - - - -
28/03:00pm 30.9 WSW 3 6 1010.2 - 0.0 - - - - - - -
28/02:30pm 30.7 WSW 4 7 1010.7 - 0.0 - - - - - - -
28/02:00pm 31.4 WNW 5 8 1011.1 - 0.0 - - - - - - -
28/01:30pm 30.8 W 5 7 1011.5 - 0.0 - - - - - - -
28/01:00pm 30.7 W 4 7 1012.0 - 0.0 - - - - - - -

Other Formats:

Comma delimited format used in spreadsheet applications
http://www.bom.gov.au/fwo/IDD60701/IDD60701.99501.axf

JavaScript Object Notation format (JSON) in row-major order
http://www.bom.gov.au/fwo/IDD60701/IDD60701.99501.json